CW3712 Weather Reports


Display with metric or nautical units.
time (UTC)temp
F
wind
direction
speed
MPH
gust
MPH
rain 1hr
in
rain 24hr
in
rain mn
in
humidity
%
barometer
mb
20260506153033 70 245 8.0 22.0 0.00 0.00 0.00 62 1008.3
20260506151535 70 215 8.0 19.0 0.00 0.00 0.00 62 1008.4
20260506150043 72 188 3.0 13.0 0.00 0.00 0.00 61 1008.7
20260506144549 71 265 11.0 24.0 0.00 0.00 0.00 61 1008.5
20260506143046 70 260 7.0 19.0 0.00 0.00 0.00 63 1008.6
20260506141548 69 249 6.0 17.0 0.00 0.00 0.00 64 1008.8
20260506140056 69 233 8.0 21.0 0.00 0.00 0.00 64 1008.7
20260506134504 69 316 5.0 19.0 0.00 0.00 0.00 64 1008.8
20260506133007 69 179 7.0 20.0 0.00 0.00 0.00 64 1008.9
20260506131507 69 202 7.0 22.0 0.00 0.00 0.00 65 1009.1
20260506130011 68 216 8.0 16.0 0.00 0.00 0.00 66 1008.8
20260506124515 68 206 7.0 17.0 0.00 0.00 0.00 67 1008.6
20260506123017 67 209 6.0 13.0 0.00 0.00 0.00 68 1008.7
20260506121522 67 227 3.0 21.0 0.00 0.00 0.00 69 1008.9
20260506120029 66 243 10.0 19.0 0.00 0.00 0.00 69 1009.1
20260506114535 66 258 6.0 22.0 0.00 0.00 0.00 70 1009.1
20260506113046 66 286 6.0 15.0 0.00 0.00 0.00 71 1009.0
20260506111541 65 258 6.0 20.0 0.00 0.00 0.00 72 1009.3
20260506110028 65 226 4.0 19.0 0.00 0.00 0.00 73 1009.0
20260506104530 65 192 5.0 15.0 0.00 0.00 0.00 74 1008.9
20260506103041 65 234 5.0 15.0 0.00 0.00 0.00 73 1009.0
20260506101548 65 222 6.0 16.0 0.00 0.00 0.00 74 1008.8
20260506100059 65 258 3.0 14.0 0.00 0.00 0.00 74 1008.7
20260506094553 65 156 5.0 15.0 0.00 0.00 0.00 74 1008.7
20260506093003 65 349 6.0 15.0 0.00 0.00 0.00 74 1008.6
20260506091505 65 262 3.0 11.0 0.00 0.00 0.00 74 1008.8
20260506090011 65 243 5.0 12.0 0.00 0.00 0.00 74 1008.8
20260506084517 65 255 7.0 14.0 0.00 0.00 0.00 74 1008.9
20260506083022 65 235 4.0 12.0 0.00 0.00 0.00 73 1008.9
20260506081533 65 266 3.0 11.0 0.00 0.00 0.00 73 1009.0
20260506073048 66 113 5.0 12.0 0.00 0.00 0.00 71 1009.1
20260506071531 66 230 3.0 11.0 0.00 0.00 0.00 70 1009.1
20260506061548 67 230 5.0 14.0 0.00 0.00 0.00 67 1009.2
20260506044703 68 249 5.0 17.0 0.00 0.00 0.00 63 1009.7
20260506043109 68 234 7.0 15.0 0.00 0.00 0.00 62 1009.8
20260506041504 69 230 4.0 19.0 0.00 0.00 0.00 61 1009.6
20260506040011 69 143 6.0 16.0 0.00 0.00 0.00 60 1009.6
20260506034523 69 243 9.0 20.0 0.00 0.00 0.00 59 1009.7
20260506033014 70 262 8.0 19.0 0.00 0.00 0.00 58 1009.6
20260506031521 70 260 5.0 19.0 0.00 0.00 0.00 56 1009.6
20260506030024 71 228 6.0 19.0 0.00 0.00 0.00 55 1009.5
20260506024529 71 233 5.0 17.0 0.00 0.00 0.00 54 1009.5
20260506023040 71 274 7.0 17.0 0.00 0.00 0.00 54 1009.6
20260506021518 71 228 9.0 19.0 0.00 0.00 0.00 54 1009.3
20260506020022 72 247 7.0 19.0 0.00 0.00 0.00 54 1009.2
20260506014527 72 231 9.0 15.0 0.00 0.00 0.00 53 1009.1
20260506013030 73 312 6.0 17.0 0.00 0.00 0.00 51 1009.0
20260506011517 74 239 6.0 13.0 0.00 0.00 0.00 47 1008.8
20260506010020 76 240 8.0 19.0 0.00 0.00 0.00 42 1008.3
20260506004536 76 239 8.0 21.0 0.00 0.00 0.00 41 1008.1
20260506003043 77 209 6.0 22.0 0.00 0.00 0.00 39 1008.1
20260506001538 78 247 5.0 23.0 0.00 0.00 0.00 38 1007.9
20260506000046 78 268 6.0 19.0 0.00 0.00 0.00 37 1007.8
20260505234614 79 246 3.0 18.0 0.00 0.00 0.00 34 1007.7
20260505233048 80 220 8.0 28.0 0.00 0.00 0.00 32 1007.5
20260505231552 80 222 10.0 26.0 0.00 0.00 0.00 31 1007.2
20260505230059 80 227 7.0 25.0 0.00 0.00 0.00 31 1007.1
20260505224502 80 214 8.0 24.0 0.00 0.00 0.00 29 1006.9
20260505223007 81 251 10.0 27.0 0.00 0.00 0.00 28 1006.9
20260505221550 81 257 11.0 26.0 0.00 0.00 0.00 27 1007.0
20260505220051 82 254 12.0 29.0 0.00 0.00 0.00 26 1006.8
20260505214542 83 244 13.0 32.0 0.00 0.00 0.00 27 1006.5
20260505213057 83 239 14.0 30.0 0.00 0.00 0.00 29 1006.6
20260505211601 83 244 16.0 25.0 0.00 0.00 0.00 29 1006.4
20260505210058 83 225 15.0 28.0 0.00 0.00 0.00 28 1006.5
20260505204505 83 257 18.0 32.0 0.00 0.00 0.00 28 1006.4
20260505203011 83 237 10.0 26.0 0.00 0.00 0.00 29 1006.3
20260505201523 83 239 11.0 25.0 0.00 0.00 0.00 30 1006.5
20260505200018 83 237 11.0 24.0 0.00 0.00 0.00 30 1006.7
20260505194531 83 154 8.0 33.0 0.00 0.00 0.00 31 1006.8
20260505193037 83 248 13.0 27.0 0.00 0.00 0.00 31 1007.0
20260505191546 83 213 12.0 30.0 0.00 0.00 0.00 32 1007.4
20260505190035 82 245 17.0 28.0 0.00 0.00 0.00 30 1007.8
20260505184526 83 236 8.0 23.0 0.00 0.00 0.00 32 1008.1
20260505183031 82 250 12.0 31.0 0.00 0.00 0.00 32 1008.1
20260505181535 81 295 13.0 22.0 0.00 0.00 0.00 36 1008.2
20260505180048 81 228 10.0 22.0 0.00 0.00 0.00 36 1008.5
20260505174536 82 212 4.0 16.0 0.00 0.00 0.00 37 1008.6
20260505173015 81 206 6.0 21.0 0.00 0.00 0.00 39 1008.6
20260505171519 81 187 4.0 14.0 0.00 0.00 0.00 39 1008.8
20260505170027 81 237 5.0 15.0 0.00 0.00 0.00 39 1008.9
20260505164525 80 265 5.0 15.0 0.00 0.00 0.00 41 1009.0
20260505163025 79 245 6.0 17.0 0.00 0.00 0.00 41 1009.3
20260505161531 78 276 8.0 17.0 0.00 0.00 0.00 41 1009.4